Flag for Austria Weather past 2 weeks in Kapfenberg, Styria, Austria

Now
46 °F

Partly sunny.


Feels Like: 43 °F
Forecast: 28 / 47 °F
Wind: 7 mph from Southwest

Location: Zeltweg

Current Time: Mar 1, 2015 at 4:24:00 PM

Latest Report: Mar 1, 2015 at 3:50 PM


Visibility: 12 mi

Pressure: 29.83 "Hg

Humidity: 53%

Dew point: 30 °F

Location of KapfenbergLocation

Historic Weather in Kapfenberg — Graph

°F

Kapfenberg temperature yesterday

Maximum temperature yesterday: 46 °F (at 1:50 PM)
Minimum temperature yesterday: 28 °F (at 4:50 AM)
Average temperature yesterday: 39 °F

Past Weeks' High & Low Weather Summary

 TemperatureHumidityPressure
High48 °F (Feb 27, 2:50 PM)100% (Feb 15, 7:50 AM)30.66 "Hg (Feb 15, 7:50 AM)
Low16 °F (Feb 19, 4:50 AM)34% (Feb 20, 2:50 PM)29.56 "Hg (Feb 23, 1:50 PM)
Average35 °F75%30.01 "Hg
* Reported Feb 14 2:50 PM — Mar 1 2:50 PM, Kapfenberg, Weather by CustomWeather, © 2015

Note: Actual official high and low records may vary slightly from our data, if they occured in-between our weather recording intervals... More about our weather records

Advertising

Kapfenberg weather history for previous 24 hours

 ConditionsComfort  
Time TempWeatherWind HumidityBarometerVisibility
2:50 PM
Sun, Mar 1
46 °FPartly sunny.8 mph50%29.83 "Hg12 mi
1:50 PM46 °FPartly sunny.8 mph50%29.86 "Hg12 mi
12:50 PM45 °FOvercast.7 mph53%29.86 "Hg12 mi
11:50 AM43 °FPartly sunny.8 mph57%29.89 "Hg12 mi
10:50 AM43 °FBroken clouds.5 mph61%29.89 "Hg12 mi
9:50 AM36 °FPartly sunny.No wind81%29.92 "Hg12 mi
8:50 AM34 °FPartly sunny.3 mph81%29.92 "Hg12 mi
7:50 AM30 °FPartly sunny.No wind93%29.95 "Hg12 mi
6:50 AM28 °FScattered clouds.1 mph93%29.95 "Hg9 mi
5:50 AM30 °FPassing clouds.2 mph86%29.95 "Hg9 mi
4:50 AM30 °FPassing clouds.1 mph86%29.95 "Hg9 mi
9:50 PM
Sat, Feb 28
37 °FPassing clouds.3 mph70%30.04 "Hg9 mi
8:50 PM37 °FPassing clouds.3 mph70%30.07 "Hg9 mi
7:50 PM39 °FPassing clouds.3 mph61%30.04 "Hg12 mi
6:50 PM41 °FPassing clouds.7 mph57%30.04 "Hg16 mi
5:50 PM41 °FPassing clouds.7 mph57%30.04 "Hg19 mi
4:50 PM43 °FPartly sunny.13 mph53%30.01 "Hg19 mi
Weather by CustomWeather, © 2015

See weather overviewHow to use our weather pages